<?xml version="1.0" encoding="UTF-8" standalone="no" ?><gpx xmlns="http://www.topografix.com/GPX/1/1" xmlns:gpxx="http://www.garmin.com/xmlschemas/GpxExtensions/v3" xmlns:wptx1="http://www.garmin.com/xmlschemas/WaypointExtension/v1" xmlns:gpxtpx="http://www.garmin.com/xmlschemas/TrackPointExtension/v1" creator="GuideVTT.com" version="1.1" xmlns:xsi="http://www.w3.org/2001/XMLSchema-instance" xsi:schemaLocation="http://www.topografix.com/GPX/1/1 http://www.topografix.com/GPX/1/1/gpx.xsd http://www.garmin.com/xmlschemas/GpxExtensions/v3 http://www8.garmin.com/xmlschemas/GpxExtensionsv3.xsd http://www.garmin.com/xmlschemas/WaypointExtension/v1 http://www8.garmin.com/xmlschemas/WaypointExtensionv1.xsd http://www.garmin.com/xmlschemas/TrackPointExtension/v1 http://www.garmin.com/xmlschemas/TrackPointExtensionv1.xsd">
<metadata><link href="http://www.garmin.com"><text>Garmin International</text></link><time>2013-06-22T15:13:50Z</time></metadata>
<trk><name>barillette_15km.gpx</name><extensions><gpxx:TrackExtension><gpxx:DisplayColor>Cyan</gpxx:DisplayColor></gpxx:TrackExtension></extensions><trkseg>
<trkpt lat="46.40083313" lon="6.172191140000001"><ele>533</ele><time>-0-0T0:0:0Z</time></trkpt>
<trkpt lat="46.40083313" lon="6.172191140000001"><ele>533</ele><time>-0-0T0:0:0Z</time></trkpt>
<trkpt lat="46.40072249999999" lon="6.172049050000001"><ele>533</ele><time>-0-0T0:0:0Z</time></trkpt>
<trkpt lat="46.40064621" lon="6.171964169999999"><ele>532</ele><time>-0-0T0:0:0Z</time></trkpt>
<trkpt lat="46.40055084" lon="6.17185211"><ele>532</ele><time>-0-0T0:0:0Z</time></trkpt>
<trkpt lat="46.40044785000001" lon="6.17172289"><ele>532</ele><time>-0-0T0:0:0Z</time></trkpt>
<trkpt lat="46.400177" lon="6.171411039999999"><ele>532</ele><time>-0-0T0:0:0Z</time></trkpt>
<trkpt lat="46.40006638" lon="6.171290869999999"><ele>532</ele><time>-0-0T0:0:0Z</time></trkpt>
<trkpt lat="46.39985657" lon="6.17106819"><ele>533</ele><time>-0-0T0:0:0Z</time></trkpt>
<trkpt lat="46.39987564000001" lon="6.1707468"><ele>533</ele><time>-0-0T0:0:0Z</time></trkpt>
<trkpt lat="46.39997482" lon="6.170609"><ele>534</ele><time>-0-0T0:0:0Z</time></trkpt>
<trkpt lat="46.40027237" lon="6.16995478"><ele>534</ele><time>-0-0T0:0:0Z</time></trkpt>
<trkpt lat="46.40045547" lon="6.16950512"><ele>534</ele><time>-0-0T0:0:0Z</time></trkpt>
<trkpt lat="46.40039825000001" lon="6.169244770000001"><ele>535</ele><time>-0-0T0:0:0Z</time></trkpt>
<trkpt lat="46.39952469" lon="6.16819906"><ele>535</ele><time>-0-0T0:0:0Z</time></trkpt>
<trkpt lat="46.39885329999999" lon="6.16724777"><ele>536</ele><time>-0-0T0:0:0Z</time></trkpt>
<trkpt lat="46.39873505000001" lon="6.16705704"><ele>536</ele><time>-0-0T0:0:0Z</time></trkpt>
<trkpt lat="46.39867783" lon="6.1669631"><ele>536</ele><time>-0-0T0:0:0Z</time></trkpt>
<trkpt lat="46.39861679" lon="6.16686916"><ele>536</ele><time>-0-0T0:0:0Z</time></trkpt>
<trkpt lat="46.39791107" lon="6.16578817"><ele>535</ele><time>-0-0T0:0:0Z</time></trkpt>
<trkpt lat="46.39784241000001" lon="6.165684219999999"><ele>535</ele><time>-0-0T0:0:0Z</time></trkpt>
<trkpt lat="46.39777374" lon="6.165578839999999"><ele>535</ele><time>-0-0T0:0:0Z</time></trkpt>
<trkpt lat="46.39718628000001" lon="6.16476488"><ele>534</ele><time>-0-0T0:0:0Z</time></trkpt>
<trkpt lat="46.39710999" lon="6.16466618"><ele>534</ele><time>-0-0T0:0:0Z</time></trkpt>
<trkpt lat="46.39702987999999" lon="6.16456795"><ele>534</ele><time>-0-0T0:0:0Z</time></trkpt>
<trkpt lat="46.39694977" lon="6.16447115"><ele>533</ele><time>-0-0T0:0:0Z</time></trkpt>
<trkpt lat="46.39686584" lon="6.164375779999999"><ele>533</ele><time>-0-0T0:0:0Z</time></trkpt>
<trkpt lat="46.39619064" lon="6.163662910000001"><ele>531</ele><time>-0-0T0:0:0Z</time></trkpt>
<trkpt lat="46.39575577" lon="6.16321802"><ele>529</ele><time>-0-0T0:0:0Z</time></trkpt>
<trkpt lat="46.39558792" lon="6.16303015"><ele>529</ele><time>-0-0T0:0:0Z</time></trkpt>
<trkpt lat="46.39521027" lon="6.16256809"><ele>528</ele><time>-0-0T0:0:0Z</time></trkpt>
<trkpt lat="46.39508057" lon="6.16239405"><ele>528</ele><time>-0-0T0:0:0Z</time></trkpt>
<trkpt lat="46.39502335" lon="6.162315850000001"><ele>528</ele><time>-0-0T0:0:0Z</time></trkpt>
<trkpt lat="46.39497375000001" lon="6.162247180000001"><ele>528</ele><time>-0-0T0:0:0Z</time></trkpt>
<trkpt lat="46.39488220000001" lon="6.16212893"><ele>528</ele><time>-0-0T0:0:0Z</time></trkpt>
<trkpt lat="46.39482117" lon="6.162015909999999"><ele>528</ele><time>-0-0T0:0:0Z</time></trkpt>
<trkpt lat="46.39481354000001" lon="6.161953929999999"><ele>528</ele><time>-0-0T0:0:0Z</time></trkpt>
<trkpt lat="46.39486694" lon="6.161856169999999"><ele>528</ele><time>-0-0T0:0:0Z</time></trkpt>
<trkpt lat="46.39499283" lon="6.16170883"><ele>529</ele><time>-0-0T0:0:0Z</time></trkpt>
<trkpt lat="46.39506531000001" lon="6.16160488"><ele>529</ele><time>-0-0T0:0:0Z</time></trkpt>
<trkpt lat="46.39582825" lon="6.16066217"><ele>533</ele><time>-0-0T0:0:0Z</time></trkpt>
<trkpt lat="46.39678955" lon="6.15945196"><ele>540</ele><time>-0-0T0:0:0Z</time></trkpt>
<trkpt lat="46.39789581" lon="6.15806913"><ele>543</ele><time>-0-0T0:0:0Z</time></trkpt>
<trkpt lat="46.39852524" lon="6.15729618"><ele>545</ele><time>-0-0T0:0:0Z</time></trkpt>
<trkpt lat="46.39850997999999" lon="6.15688705"><ele>548</ele><time>-0-0T0:0:0Z</time></trkpt>
<trkpt lat="46.39846802" lon="6.15680218"><ele>548</ele><time>-0-0T0:0:0Z</time></trkpt>
<trkpt lat="46.39763641" lon="6.15544415"><ele>543</ele><time>-0-0T0:0:0Z</time></trkpt>
<trkpt lat="46.39667511" lon="6.15387011"><ele>546</ele><time>-0-0T0:0:0Z</time></trkpt>
<trkpt lat="46.39624405" lon="6.15317202"><ele>545</ele><time>-0-0T0:0:0Z</time></trkpt>
<trkpt lat="46.3957634" lon="6.15236092"><ele>544</ele><time>-0-0T0:0:0Z</time></trkpt>
<trkpt lat="46.39514542" lon="6.15134287"><ele>546</ele><time>-0-0T0:0:0Z</time></trkpt>
<trkpt lat="46.39402771" lon="6.14995623"><ele>545</ele><time>-0-0T0:0:0Z</time></trkpt>
<trkpt lat="46.3932724" lon="6.14899778"><ele>544</ele><time>-0-0T0:0:0Z</time></trkpt>
<trkpt lat="46.39323044" lon="6.14894485"><ele>543</ele><time>-0-0T0:0:0Z</time></trkpt>
<trkpt lat="46.39320374" lon="6.148723130000001"><ele>543</ele><time>-0-0T0:0:0Z</time></trkpt>
<trkpt lat="46.39335251" lon="6.148486139999999"><ele>543</ele><time>-0-0T0:0:0Z</time></trkpt>
<trkpt lat="46.39390945" lon="6.147576809999999"><ele>549</ele><time>-0-0T0:0:0Z</time></trkpt>
<trkpt lat="46.39453888" lon="6.14655876"><ele>556</ele><time>-0-0T0:0:0Z</time></trkpt>
<trkpt lat="46.39487457" lon="6.14601994"><ele>561</ele><time>-0-0T0:0:0Z</time></trkpt>
<trkpt lat="46.39498138" lon="6.14565086"><ele>568</ele><time>-0-0T0:0:0Z</time></trkpt>
<trkpt lat="46.39522934" lon="6.14554024"><ele>570</ele><time>-0-0T0:0:0Z</time></trkpt>
<trkpt lat="46.3956871" lon="6.14553213"><ele>573</ele><time>-0-0T0:0:0Z</time></trkpt>
<trkpt lat="46.39609909" lon="6.14555597"><ele>576</ele><time>-0-0T0:0:0Z</time></trkpt>
<trkpt lat="46.39655685" lon="6.1455822"><ele>580</ele><time>-0-0T0:0:0Z</time></trkpt>
<trkpt lat="46.39687347" lon="6.14555788"><ele>583</ele><time>-0-0T0:0:0Z</time></trkpt>
<trkpt lat="46.39722443" lon="6.14550877"><ele>585</ele><time>-0-0T0:0:0Z</time></trkpt>
<trkpt lat="46.39768219" lon="6.14545822"><ele>586</ele><time>-0-0T0:0:0Z</time></trkpt>
<trkpt lat="46.39812087999999" lon="6.14539814"><ele>588</ele><time>-0-0T0:0:0Z</time></trkpt>
<trkpt lat="46.3985939" lon="6.145432"><ele>589</ele><time>-0-0T0:0:0Z</time></trkpt>
<trkpt lat="46.39885712" lon="6.145339010000001"><ele>591</ele><time>-0-0T0:0:0Z</time></trkpt>
<trkpt lat="46.39893723" lon="6.145227910000001"><ele>593</ele><time>-0-0T0:0:0Z</time></trkpt>
<trkpt lat="46.39897156" lon="6.14507103"><ele>599</ele><time>-0-0T0:0:0Z</time></trkpt>
<trkpt lat="46.39887619" lon="6.14489603"><ele>602</ele><time>-0-0T0:0:0Z</time></trkpt>
<trkpt lat="46.39860916" lon="6.14430904"><ele>606</ele><time>-0-0T0:0:0Z</time></trkpt>
<trkpt lat="46.39833069" lon="6.14374399"><ele>607</ele><time>-0-0T0:0:0Z</time></trkpt>
<trkpt lat="46.39809418" lon="6.14325094"><ele>608</ele><time>-0-0T0:0:0Z</time></trkpt>
<trkpt lat="46.39782332999999" lon="6.14269018"><ele>609</ele><time>-0-0T0:0:0Z</time></trkpt>
<trkpt lat="46.39765549" lon="6.14222813"><ele>610</ele><time>-0-0T0:0:0Z</time></trkpt>
<trkpt lat="46.39758301" lon="6.142041210000001"><ele>612</ele><time>-0-0T0:0:0Z</time></trkpt>
<trkpt lat="46.39752579" lon="6.141859049999999"><ele>614</ele><time>-0-0T0:0:0Z</time></trkpt>
<trkpt lat="46.39725876" lon="6.141357899999999"><ele>619</ele><time>-0-0T0:0:0Z</time></trkpt>
<trkpt lat="46.39702606" lon="6.14087915"><ele>625</ele><time>-0-0T0:0:0Z</time></trkpt>
<trkpt lat="46.39680862" lon="6.14048815"><ele>625</ele><time>-0-0T0:0:0Z</time></trkpt>
<trkpt lat="46.39658356" lon="6.13990021"><ele>625</ele><time>-0-0T0:0:0Z</time></trkpt>
<trkpt lat="46.39644241" lon="6.13927794"><ele>632</ele><time>-0-0T0:0:0Z</time></trkpt>
<trkpt lat="46.39631271" lon="6.13879919"><ele>635</ele><time>-0-0T0:0:0Z</time></trkpt>
<trkpt lat="46.39614104999999" lon="6.13828707"><ele>638</ele><time>-0-0T0:0:0Z</time></trkpt>
<trkpt lat="46.39588547" lon="6.13786221"><ele>640</ele><time>-0-0T0:0:0Z</time></trkpt>
<trkpt lat="46.39583588" lon="6.13770819"><ele>640</ele><time>-0-0T0:0:0Z</time></trkpt>
<trkpt lat="46.39596176" lon="6.137604239999999"><ele>643</ele><time>-0-0T0:0:0Z</time></trkpt>
<trkpt lat="46.39615631000001" lon="6.13730001"><ele>648</ele><time>-0-0T0:0:0Z</time></trkpt>
<trkpt lat="46.39625549" lon="6.13699102"><ele>650</ele><time>-0-0T0:0:0Z</time></trkpt>
<trkpt lat="46.3964119" lon="6.136826039999999"><ele>654</ele><time>-0-0T0:0:0Z</time></trkpt>
<trkpt lat="46.39649963000001" lon="6.136837010000001"><ele>655</ele><time>-0-0T0:0:0Z</time></trkpt>
<trkpt lat="46.39657210999999" lon="6.13692904"><ele>656</ele><time>-0-0T0:0:0Z</time></trkpt>
<trkpt lat="46.39673615" lon="6.13709497"><ele>656</ele><time>-0-0T0:0:0Z</time></trkpt>
<trkpt lat="46.39693069" lon="6.13731718"><ele>657</ele><time>-0-0T0:0:0Z</time></trkpt>
<trkpt lat="46.39717865" lon="6.13760281"><ele>658</ele><time>-0-0T0:0:0Z</time></trkpt>
<trkpt lat="46.39743423000001" lon="6.13801098"><ele>658</ele><time>-0-0T0:0:0Z</time></trkpt>
<trkpt lat="46.39750671" lon="6.13805008"><ele>658</ele><time>-0-0T0:0:0Z</time></trkpt>
<trkpt lat="46.39760971" lon="6.13814211"><ele>658</ele><time>-0-0T0:0:0Z</time></trkpt>
<trkpt lat="46.39815903" lon="6.13870478"><ele>663</ele><time>-0-0T0:0:0Z</time></trkpt>
<trkpt lat="46.39861298" lon="6.13913298"><ele>662</ele><time>-0-0T0:0:0Z</time></trkpt>
<trkpt lat="46.39901351999999" lon="6.139570240000001"><ele>659</ele><time>-0-0T0:0:0Z</time></trkpt>
<trkpt lat="46.39930344" lon="6.139884"><ele>657</ele><time>-0-0T0:0:0Z</time></trkpt>
<trkpt lat="46.39973831" lon="6.14045191"><ele>653</ele><time>-0-0T0:0:0Z</time></trkpt>
<trkpt lat="46.39981842" lon="6.14052391"><ele>652</ele><time>-0-0T0:0:0Z</time></trkpt>
<trkpt lat="46.40022278" lon="6.14094877"><ele>644</ele><time>-0-0T0:0:0Z</time></trkpt>
<trkpt lat="46.40032959" lon="6.14087915"><ele>645</ele><time>-0-0T0:0:0Z</time></trkpt>
<trkpt lat="46.40029143999999" lon="6.14078283"><ele>645</ele><time>-0-0T0:0:0Z</time></trkpt>
<trkpt lat="46.40023804" lon="6.14016581"><ele>652</ele><time>-0-0T0:0:0Z</time></trkpt>
<trkpt lat="46.40010452000001" lon="6.13956881"><ele>658</ele><time>-0-0T0:0:0Z</time></trkpt>
<trkpt lat="46.39998245" lon="6.13926315"><ele>663</ele><time>-0-0T0:0:0Z</time></trkpt>
<trkpt lat="46.39973068" lon="6.13884592"><ele>665</ele><time>-0-0T0:0:0Z</time></trkpt>
<trkpt lat="46.39958954" lon="6.13861084"><ele>667</ele><time>-0-0T0:0:0Z</time></trkpt>
<trkpt lat="46.39964676" lon="6.138459210000001"><ele>667</ele><time>-0-0T0:0:0Z</time></trkpt>
<trkpt lat="46.39993286" lon="6.13839197"><ele>678</ele><time>-0-0T0:0:0Z</time></trkpt>
<trkpt lat="46.40030670000001" lon="6.13837481"><ele>683</ele><time>-0-0T0:0:0Z</time></trkpt>
<trkpt lat="46.40060043" lon="6.13852406"><ele>681</ele><time>-0-0T0:0:0Z</time></trkpt>
<trkpt lat="46.40077208999999" lon="6.138644220000001"><ele>682</ele><time>-0-0T0:0:0Z</time></trkpt>
<trkpt lat="46.40109634" lon="6.138577940000001"><ele>686</ele><time>-0-0T0:0:0Z</time></trkpt>
<trkpt lat="46.40135193" lon="6.138644220000001"><ele>689</ele><time>-0-0T0:0:0Z</time></trkpt>
<trkpt lat="46.40155792" lon="6.138857839999999"><ele>688</ele><time>-0-0T0:0:0Z</time></trkpt>
<trkpt lat="46.40186691" lon="6.13897085"><ele>692</ele><time>-0-0T0:0:0Z</time></trkpt>
<trkpt lat="46.40206908999999" lon="6.13870478"><ele>700</ele><time>-0-0T0:0:0Z</time></trkpt>
<trkpt lat="46.40228271" lon="6.138309"><ele>705</ele><time>-0-0T0:0:0Z</time></trkpt>
<trkpt lat="46.40232086" lon="6.13828707"><ele>705</ele><time>-0-0T0:0:0Z</time></trkpt>
<trkpt lat="46.40262222" lon="6.138616089999999"><ele>708</ele><time>-0-0T0:0:0Z</time></trkpt>
<trkpt lat="46.40285873" lon="6.13900185"><ele>710</ele><time>-0-0T0:0:0Z</time></trkpt>
<trkpt lat="46.40310287" lon="6.1389699"><ele>713</ele><time>-0-0T0:0:0Z</time></trkpt>
<trkpt lat="46.40323257" lon="6.13867092"><ele>719</ele><time>-0-0T0:0:0Z</time></trkpt>
<trkpt lat="46.40340424" lon="6.13847494"><ele>722</ele><time>-0-0T0:0:0Z</time></trkpt>
<trkpt lat="46.40365219" lon="6.13840294"><ele>723</ele><time>-0-0T0:0:0Z</time></trkpt>
<trkpt lat="46.40393448" lon="6.138304230000001"><ele>725</ele><time>-0-0T0:0:0Z</time></trkpt>
<trkpt lat="46.40428925" lon="6.138258929999999"><ele>725</ele><time>-0-0T0:0:0Z</time></trkpt>
<trkpt lat="46.40453338999999" lon="6.1382122"><ele>727</ele><time>-0-0T0:0:0Z</time></trkpt>
<trkpt lat="46.40480804" lon="6.13790321"><ele>734</ele><time>-0-0T0:0:0Z</time></trkpt>
<trkpt lat="46.40498352" lon="6.13777304"><ele>736</ele><time>-0-0T0:0:0Z</time></trkpt>
<trkpt lat="46.40500259000001" lon="6.13778305"><ele>736</ele><time>-0-0T0:0:0Z</time></trkpt>
<trkpt lat="46.40511703" lon="6.137934210000001"><ele>734</ele><time>-0-0T0:0:0Z</time></trkpt>
<trkpt lat="46.40547562" lon="6.13823605"><ele>735</ele><time>-0-0T0:0:0Z</time></trkpt>
<trkpt lat="46.40574646" lon="6.13810396"><ele>740</ele><time>-0-0T0:0:0Z</time></trkpt>
<trkpt lat="46.40597534" lon="6.13786221"><ele>744</ele><time>-0-0T0:0:0Z</time></trkpt>
<trkpt lat="46.40605545" lon="6.137784"><ele>745</ele><time>-0-0T0:0:0Z</time></trkpt>
<trkpt lat="46.40643311" lon="6.13751221"><ele>750</ele><time>-0-0T0:0:0Z</time></trkpt>
<trkpt lat="46.40659332" lon="6.137330060000001"><ele>754</ele><time>-0-0T0:0:0Z</time></trkpt>
<trkpt lat="46.40686798" lon="6.13722515"><ele>759</ele><time>-0-0T0:0:0Z</time></trkpt>
<trkpt lat="46.40700531" lon="6.137395859999999"><ele>756</ele><time>-0-0T0:0:0Z</time></trkpt>
<trkpt lat="46.40703583000001" lon="6.137555119999999"><ele>754</ele><time>-0-0T0:0:0Z</time></trkpt>
<trkpt lat="46.40704727" lon="6.13773394"><ele>752</ele><time>-0-0T0:0:0Z</time></trkpt>
<trkpt lat="46.40703201000001" lon="6.13788223"><ele>750</ele><time>-0-0T0:0:0Z</time></trkpt>
<trkpt lat="46.40706252999999" lon="6.13806581"><ele>752</ele><time>-0-0T0:0:0Z</time></trkpt>
<trkpt lat="46.40717697" lon="6.13844204"><ele>756</ele><time>-0-0T0:0:0Z</time></trkpt>
<trkpt lat="46.40734482" lon="6.138537880000001"><ele>762</ele><time>-0-0T0:0:0Z</time></trkpt>
<trkpt lat="46.40740967" lon="6.138629909999999"><ele>765</ele><time>-0-0T0:0:0Z</time></trkpt>
<trkpt lat="46.40762711000001" lon="6.13886309"><ele>770</ele><time>-0-0T0:0:0Z</time></trkpt>
<trkpt lat="46.40800476" lon="6.13906384"><ele>777</ele><time>-0-0T0:0:0Z</time></trkpt>
<trkpt lat="46.40815735" lon="6.139194010000001"><ele>778</ele><time>-0-0T0:0:0Z</time></trkpt>
<trkpt lat="46.40842438" lon="6.139365199999999"><ele>778</ele><time>-0-0T0:0:0Z</time></trkpt>
<trkpt lat="46.40851974" lon="6.1393981"><ele>779</ele><time>-0-0T0:0:0Z</time></trkpt>
<trkpt lat="46.40889359" lon="6.13945389"><ele>784</ele><time>-0-0T0:0:0Z</time></trkpt>
<trkpt lat="46.40922165" lon="6.139490130000001"><ele>789</ele><time>-0-0T0:0:0Z</time></trkpt>
<trkpt lat="46.40943909" lon="6.13946581"><ele>790</ele><time>-0-0T0:0:0Z</time></trkpt>
<trkpt lat="46.40958405" lon="6.139441970000001"><ele>792</ele><time>-0-0T0:0:0Z</time></trkpt>
<trkpt lat="46.40994263" lon="6.139692779999999"><ele>795</ele><time>-0-0T0:0:0Z</time></trkpt>
<trkpt lat="46.41022873000001" lon="6.139826769999999"><ele>793</ele><time>-0-0T0:0:0Z</time></trkpt>
<trkpt lat="46.41034317" lon="6.13998985"><ele>793</ele><time>-0-0T0:0:0Z</time></trkpt>
<trkpt lat="46.41046142999999" lon="6.14012098"><ele>793</ele><time>-0-0T0:0:0Z</time></trkpt>
<trkpt lat="46.41078186" lon="6.140336990000001"><ele>799</ele><time>-0-0T0:0:0Z</time></trkpt>
<trkpt lat="46.41107941" lon="6.14040899"><ele>802</ele><time>-0-0T0:0:0Z</time></trkpt>
<trkpt lat="46.41136551000001" lon="6.140511040000001"><ele>805</ele><time>-0-0T0:0:0Z</time></trkpt>
<trkpt lat="46.41167068" lon="6.14091778"><ele>805</ele><time>-0-0T0:0:0Z</time></trkpt>
<trkpt lat="46.41188049" lon="6.141218189999999"><ele>810</ele><time>-0-0T0:0:0Z</time></trkpt>
<trkpt lat="46.41202927000001" lon="6.14147186"><ele>810</ele><time>-0-0T0:0:0Z</time></trkpt>
<trkpt lat="46.41210556" lon="6.14160395"><ele>809</ele><time>-0-0T0:0:0Z</time></trkpt>
<trkpt lat="46.41226959" lon="6.14183521"><ele>811</ele><time>-0-0T0:0:0Z</time></trkpt>
<trkpt lat="46.41241837000001" lon="6.142077920000001"><ele>807</ele><time>-0-0T0:0:0Z</time></trkpt>
<trkpt lat="46.41249083999999" lon="6.14220619"><ele>805</ele><time>-0-0T0:0:0Z</time></trkpt>
<trkpt lat="46.41269301999999" lon="6.14240122"><ele>804</ele><time>-0-0T0:0:0Z</time></trkpt>
<trkpt lat="46.41283798" lon="6.14245319"><ele>807</ele><time>-0-0T0:0:0Z</time></trkpt>
<trkpt lat="46.41302109" lon="6.142945769999999"><ele>796</ele><time>-0-0T0:0:0Z</time></trkpt>
<trkpt lat="46.41314316" lon="6.14341402"><ele>791</ele><time>-0-0T0:0:0Z</time></trkpt>
<trkpt lat="46.41376114" lon="6.144689080000001"><ele>777</ele><time>-0-0T0:0:0Z</time></trkpt>
<trkpt lat="46.41396713" lon="6.14509392"><ele>776</ele><time>-0-0T0:0:0Z</time></trkpt>
<trkpt lat="46.41413879" lon="6.145219799999999"><ele>778</ele><time>-0-0T0:0:0Z</time></trkpt>
<trkpt lat="46.41431808" lon="6.14541817"><ele>778</ele><time>-0-0T0:0:0Z</time></trkpt>
<trkpt lat="46.41438675" lon="6.14552879"><ele>779</ele><time>-0-0T0:0:0Z</time></trkpt>
<trkpt lat="46.41448212" lon="6.14588881"><ele>777</ele><time>-0-0T0:0:0Z</time></trkpt>
<trkpt lat="46.41443634" lon="6.14639997"><ele>775</ele><time>-0-0T0:0:0Z</time></trkpt>
<trkpt lat="46.41455841" lon="6.14759207"><ele>765</ele><time>-0-0T0:0:0Z</time></trkpt>
<trkpt lat="46.41465378" lon="6.14805794"><ele>758</ele><time>-0-0T0:0:0Z</time></trkpt>
<trkpt lat="46.41479492" lon="6.14844704"><ele>754</ele><time>-0-0T0:0:0Z</time></trkpt>
<trkpt lat="46.41489029" lon="6.148816110000001"><ele>745</ele><time>-0-0T0:0:0Z</time></trkpt>
<trkpt lat="46.41499329" lon="6.149030209999999"><ele>744</ele><time>-0-0T0:0:0Z</time></trkpt>
<trkpt lat="46.41518021" lon="6.14910603"><ele>746</ele><time>-0-0T0:0:0Z</time></trkpt>
<trkpt lat="46.41560364" lon="6.14966106"><ele>751</ele><time>-0-0T0:0:0Z</time></trkpt>
<trkpt lat="46.41574859999999" lon="6.14981318"><ele>752</ele><time>-0-0T0:0:0Z</time></trkpt>
<trkpt lat="46.41592789000001" lon="6.14996386"><ele>753</ele><time>-0-0T0:0:0Z</time></trkpt>
<trkpt lat="46.41646194" lon="6.15027523"><ele>758</ele><time>-0-0T0:0:0Z</time></trkpt>
<trkpt lat="46.41677475" lon="6.150469780000001"><ele>761</ele><time>-0-0T0:0:0Z</time></trkpt>
<trkpt lat="46.41694641" lon="6.1505661"><ele>761</ele><time>-0-0T0:0:0Z</time></trkpt>
<trkpt lat="46.41713637929706" lon="6.150688083594005"><ele>762</ele><time>-0-0T0:0:0Z</time></trkpt>
<trkpt lat="46.41729881477102" lon="6.151009300379835"><ele>776</ele><time>-0-0T0:0:0Z</time></trkpt>
<trkpt lat="46.41782941870462" lon="6.151252466480031"><ele>777</ele><time>-0-0T0:0:0Z</time></trkpt>
<trkpt lat="46.4179266563656" lon="6.151561435506974"><ele>774</ele><time>-0-0T0:0:0Z</time></trkpt>
<trkpt lat="46.4179778672166" lon="6.151996146621559"><ele>776</ele><time>-0-0T0:0:0Z</time></trkpt>
<trkpt lat="46.41820013143539" lon="6.152239056970695"><ele>779</ele><time>-0-0T0:0:0Z</time></trkpt>
<trkpt lat="46.41840356377447" lon="6.15262569358356"><ele>772</ele><time>-0-0T0:0:0Z</time></trkpt>
<trkpt lat="46.41901265539696" lon="6.152302580459043"><ele>771</ele><time>-0-0T0:0:0Z</time></trkpt>
<trkpt lat="46.4193218514926" lon="6.152480141294459"><ele>775</ele><time>-0-0T0:0:0Z</time></trkpt>
<trkpt lat="46.419703437248" lon="6.152856943538665"><ele>785</ele><time>-0-0T0:0:0Z</time></trkpt>
<trkpt lat="46.42001133966529" lon="6.153071267863992"><ele>787</ele><time>-0-0T0:0:0Z</time></trkpt>
<trkpt lat="46.42021756135028" lon="6.153393253128822"><ele>791</ele><time>-0-0T0:0:0Z</time></trkpt>
<trkpt lat="46.42028017278201" lon="6.15389255632675"><ele>790</ele><time>-0-0T0:0:0Z</time></trkpt>
<trkpt lat="46.42075780563056" lon="6.154305667531494"><ele>789</ele><time>-0-0T0:0:0Z</time></trkpt>
<trkpt lat="46.42093817720731" lon="6.154511333992437"><ele>792</ele><time>-0-0T0:0:0Z</time></trkpt>
<trkpt lat="46.42110787692827" lon="6.154668878192702"><ele>792</ele><time>-0-0T0:0:0Z</time></trkpt>
<trkpt lat="46.4213764505409" lon="6.154818853824276"><ele>792</ele><time>-0-0T0:0:0Z</time></trkpt>
<trkpt lat="46.42147701395408" lon="6.154790416098082"><ele>793</ele><time>-0-0T0:0:0Z</time></trkpt>
<trkpt lat="46.42144012" lon="6.154707910000001"><ele>791</ele><time>-0-0T0:0:0Z</time></trkpt>
<trkpt lat="46.42118835" lon="6.15450001"><ele>793</ele><time>-0-0T0:0:0Z</time></trkpt>
<trkpt lat="46.42110443000001" lon="6.15445518"><ele>793</ele><time>-0-0T0:0:0Z</time></trkpt>
<trkpt lat="46.42103577" lon="6.15405989"><ele>798</ele><time>-0-0T0:0:0Z</time></trkpt>
<trkpt lat="46.42103957999999" lon="6.15368414"><ele>808</ele><time>-0-0T0:0:0Z</time></trkpt>
<trkpt lat="46.42085648000001" lon="6.15323877"><ele>812</ele><time>-0-0T0:0:0Z</time></trkpt>
<trkpt lat="46.42084885" lon="6.152875899999999"><ele>813</ele><time>-0-0T0:0:0Z</time></trkpt>
<trkpt lat="46.42091751000001" lon="6.152515890000001"><ele>816</ele><time>-0-0T0:0:0Z</time></trkpt>
<trkpt lat="46.42099762" lon="6.15214491"><ele>824</ele><time>-0-0T0:0:0Z</time></trkpt>
<trkpt lat="46.42118454" lon="6.15214109"><ele>828</ele><time>-0-0T0:0:0Z</time></trkpt>
<trkpt lat="46.42123032" lon="6.15225077"><ele>825</ele><time>-0-0T0:0:0Z</time></trkpt>
<trkpt lat="46.42125702" lon="6.152314189999999"><ele>823</ele><time>-0-0T0:0:0Z</time></trkpt>
<trkpt lat="46.42142867999999" lon="6.152192119999999"><ele>824</ele><time>-0-0T0:0:0Z</time></trkpt>
<trkpt lat="46.42137146" lon="6.15194798"><ele>831</ele><time>-0-0T0:0:0Z</time></trkpt>
<trkpt lat="46.42131042000001" lon="6.151727199999999"><ele>834</ele><time>-0-0T0:0:0Z</time></trkpt>
<trkpt lat="46.42129134999999" lon="6.15163422"><ele>836</ele><time>-0-0T0:0:0Z</time></trkpt>
<trkpt lat="46.42129134999999" lon="6.15159082"><ele>837</ele><time>-0-0T0:0:0Z</time></trkpt>
<trkpt lat="46.42126083000001" lon="6.15140295"><ele>842</ele><time>-0-0T0:0:0Z</time></trkpt>
<trkpt lat="46.4212532" lon="6.15135479"><ele>843</ele><time>-0-0T0:0:0Z</time></trkpt>
<trkpt lat="46.42115784" lon="6.15109777"><ele>844</ele><time>-0-0T0:0:0Z</time></trkpt>
<trkpt lat="46.42107391" lon="6.15089512"><ele>844</ele><time>-0-0T0:0:0Z</time></trkpt>
<trkpt lat="46.4210701" lon="6.15077019"><ele>846</ele><time>-0-0T0:0:0Z</time></trkpt>
<trkpt lat="46.42107391" lon="6.15072012"><ele>847</ele><time>-0-0T0:0:0Z</time></trkpt>
<trkpt lat="46.42108535999999" lon="6.15064621"><ele>849</ele><time>-0-0T0:0:0Z</time></trkpt>
<trkpt lat="46.42111588" lon="6.150296209999999"><ele>856</ele><time>-0-0T0:0:0Z</time></trkpt>
<trkpt lat="46.42118073" lon="6.15007782"><ele>860</ele><time>-0-0T0:0:0Z</time></trkpt>
<trkpt lat="46.42124557" lon="6.15007305"><ele>862</ele><time>-0-0T0:0:0Z</time></trkpt>
<trkpt lat="46.42126846" lon="6.15011978"><ele>861</ele><time>-0-0T0:0:0Z</time></trkpt>
<trkpt lat="46.42127609" lon="6.15016985"><ele>860</ele><time>-0-0T0:0:0Z</time></trkpt>
<trkpt lat="46.42140198000001" lon="6.15050793"><ele>857</ele><time>-0-0T0:0:0Z</time></trkpt>
<trkpt lat="46.42142487" lon="6.15052891"><ele>856</ele><time>-0-0T0:0:0Z</time></trkpt>
<trkpt lat="46.42145538" lon="6.15052891"><ele>856</ele><time>-0-0T0:0:0Z</time></trkpt>
<trkpt lat="46.42171097" lon="6.15043116"><ele>861</ele><time>-0-0T0:0:0Z</time></trkpt>
<trkpt lat="46.42188262999999" lon="6.15058804"><ele>868</ele><time>-0-0T0:0:0Z</time></trkpt>
<trkpt lat="46.42207718" lon="6.15083122"><ele>876</ele><time>-0-0T0:0:0Z</time></trkpt>
<trkpt lat="46.42223358" lon="6.15109777"><ele>882</ele><time>-0-0T0:0:0Z</time></trkpt>
<trkpt lat="46.42236327999999" lon="6.151364799999999"><ele>883</ele><time>-0-0T0:0:0Z</time></trkpt>
<trkpt lat="46.42238998" lon="6.1514349"><ele>885</ele><time>-0-0T0:0:0Z</time></trkpt>
<trkpt lat="46.42253494" lon="6.15175676"><ele>890</ele><time>-0-0T0:0:0Z</time></trkpt>
<trkpt lat="46.42271042" lon="6.152019980000001"><ele>892</ele><time>-0-0T0:0:0Z</time></trkpt>
<trkpt lat="46.42298508" lon="6.15211582"><ele>887</ele><time>-0-0T0:0:0Z</time></trkpt>
<trkpt lat="46.42329025000001" lon="6.15202713"><ele>888</ele><time>-0-0T0:0:0Z</time></trkpt>
<trkpt lat="46.42349625" lon="6.151908870000001"><ele>894</ele><time>-0-0T0:0:0Z</time></trkpt>
<trkpt lat="46.42366409" lon="6.15186977"><ele>898</ele><time>-0-0T0:0:0Z</time></trkpt>
<trkpt lat="46.42375564999999" lon="6.151891230000001"><ele>897</ele><time>-0-0T0:0:0Z</time></trkpt>
<trkpt lat="46.42379760999999" lon="6.151920799999999"><ele>896</ele><time>-0-0T0:0:0Z</time></trkpt>
<trkpt lat="46.42406082" lon="6.15201712"><ele>901</ele><time>-0-0T0:0:0Z</time></trkpt>
<trkpt lat="46.42424011" lon="6.151920799999999"><ele>901</ele><time>-0-0T0:0:0Z</time></trkpt>
<trkpt lat="46.42421341" lon="6.15180016"><ele>903</ele><time>-0-0T0:0:0Z</time></trkpt>
<trkpt lat="46.42400742" lon="6.151611800000001"><ele>906</ele><time>-0-0T0:0:0Z</time></trkpt>
<trkpt lat="46.42375564999999" lon="6.15142488"><ele>908</ele><time>-0-0T0:0:0Z</time></trkpt>
<trkpt lat="46.42355347" lon="6.15138102"><ele>913</ele><time>-0-0T0:0:0Z</time></trkpt>
<trkpt lat="46.42346573" lon="6.15133095"><ele>918</ele><time>-0-0T0:0:0Z</time></trkpt>
<trkpt lat="46.42342758000001" lon="6.15118313"><ele>919</ele><time>-0-0T0:0:0Z</time></trkpt>
<trkpt lat="46.42346573" lon="6.15084982"><ele>921</ele><time>-0-0T0:0:0Z</time></trkpt>
<trkpt lat="46.42345047" lon="6.15051317"><ele>935</ele><time>-0-0T0:0:0Z</time></trkpt>
<trkpt lat="46.42342758000001" lon="6.150450229999999"><ele>938</ele><time>-0-0T0:0:0Z</time></trkpt>
<trkpt lat="46.42342758000001" lon="6.150455"><ele>938</ele><time>-0-0T0:0:0Z</time></trkpt>
<trkpt lat="46.42341995" lon="6.1504631"><ele>937</ele><time>-0-0T0:0:0Z</time></trkpt>
<trkpt lat="46.42342377" lon="6.1504488"><ele>938</ele><time>-0-0T0:0:0Z</time></trkpt>
<trkpt lat="46.42341995" lon="6.150426860000001"><ele>938</ele><time>-0-0T0:0:0Z</time></trkpt>
<trkpt lat="46.42327499" lon="6.15023708"><ele>942</ele><time>-0-0T0:0:0Z</time></trkpt>
<trkpt lat="46.42305756" lon="6.15013695"><ele>940</ele><time>-0-0T0:0:0Z</time></trkpt>
<trkpt lat="46.42296219" lon="6.150024890000001"><ele>938</ele><time>-0-0T0:0:0Z</time></trkpt>
<trkpt lat="46.42297363000001" lon="6.14967918"><ele>942</ele><time>-0-0T0:0:0Z</time></trkpt>
<trkpt lat="46.42307663" lon="6.14940214"><ele>949</ele><time>-0-0T0:0:0Z</time></trkpt>
<trkpt lat="46.42311477999999" lon="6.14911079"><ele>954</ele><time>-0-0T0:0:0Z</time></trkpt>
<trkpt lat="46.42311477999999" lon="6.148847100000001"><ele>956</ele><time>-0-0T0:0:0Z</time></trkpt>
<trkpt lat="46.42303848000001" lon="6.14853382"><ele>955</ele><time>-0-0T0:0:0Z</time></trkpt>
<trkpt lat="46.42300415" lon="6.14836788"><ele>956</ele><time>-0-0T0:0:0Z</time></trkpt>
<trkpt lat="46.42302321999999" lon="6.14819908"><ele>959</ele><time>-0-0T0:0:0Z</time></trkpt>
<trkpt lat="46.42300415" lon="6.1479311"><ele>960</ele><time>-0-0T0:0:0Z</time></trkpt>
<trkpt lat="46.42301559" lon="6.14779997"><ele>963</ele><time>-0-0T0:0:0Z</time></trkpt>
<trkpt lat="46.42308426000001" lon="6.147439960000001"><ele>970</ele><time>-0-0T0:0:0Z</time></trkpt>
<trkpt lat="46.42310715" lon="6.14727306"><ele>972</ele><time>-0-0T0:0:0Z</time></trkpt>
<trkpt lat="46.42312241" lon="6.14718199"><ele>973</ele><time>-0-0T0:0:0Z</time></trkpt>
<trkpt lat="46.42313385000001" lon="6.147035119999999"><ele>975</ele><time>-0-0T0:0:0Z</time></trkpt>
<trkpt lat="46.42319107" lon="6.146736150000001"><ele>981</ele><time>-0-0T0:0:0Z</time></trkpt>
<trkpt lat="46.42324448" lon="6.14635277"><ele>985</ele><time>-0-0T0:0:0Z</time></trkpt>
<trkpt lat="46.42328262" lon="6.146247860000001"><ele>988</ele><time>-0-0T0:0:0Z</time></trkpt>
<trkpt lat="46.42335129" lon="6.1458292"><ele>990</ele><time>-0-0T0:0:0Z</time></trkpt>
<trkpt lat="46.42337036" lon="6.14558077"><ele>992</ele><time>-0-0T0:0:0Z</time></trkpt>
<trkpt lat="46.42334747" lon="6.145356180000001"><ele>993</ele><time>-0-0T0:0:0Z</time></trkpt>
<trkpt lat="46.42334366" lon="6.14511919"><ele>997</ele><time>-0-0T0:0:0Z</time></trkpt>
<trkpt lat="46.42338181000001" lon="6.14502478"><ele>996</ele><time>-0-0T0:0:0Z</time></trkpt>
<trkpt lat="46.42350769" lon="6.145096780000001"><ele>1002</ele><time>-0-0T0:0:0Z</time></trkpt>
<trkpt lat="46.42354584" lon="6.14517021"><ele>1004</ele><time>-0-0T0:0:0Z</time></trkpt>
<trkpt lat="46.42359161" lon="6.145396229999999"><ele>1004</ele><time>-0-0T0:0:0Z</time></trkpt>
<trkpt lat="46.42360687" lon="6.14569283"><ele>1006</ele><time>-0-0T0:0:0Z</time></trkpt>
<trkpt lat="46.42360687" lon="6.14576578"><ele>1006</ele><time>-0-0T0:0:0Z</time></trkpt>
<trkpt lat="46.42359924" lon="6.145854"><ele>1005</ele><time>-0-0T0:0:0Z</time></trkpt>
<trkpt lat="46.42359161" lon="6.14615488"><ele>1005</ele><time>-0-0T0:0:0Z</time></trkpt>
<trkpt lat="46.42364502" lon="6.146547789999999"><ele>1008</ele><time>-0-0T0:0:0Z</time></trkpt>
<trkpt lat="46.42369461" lon="6.14686823"><ele>1009</ele><time>-0-0T0:0:0Z</time></trkpt>
<trkpt lat="46.42371368" lon="6.146968840000001"><ele>1008</ele><time>-0-0T0:0:0Z</time></trkpt>
<trkpt lat="46.42379760999999" lon="6.14724112"><ele>1011</ele><time>-0-0T0:0:0Z</time></trkpt>
<trkpt lat="46.42390823" lon="6.147474769999999"><ele>1016</ele><time>-0-0T0:0:0Z</time></trkpt>
<trkpt lat="46.42401505" lon="6.147688869999999"><ele>1018</ele><time>-0-0T0:0:0Z</time></trkpt>
<trkpt lat="46.42403793" lon="6.147745129999999"><ele>1018</ele><time>-0-0T0:0:0Z</time></trkpt>
<trkpt lat="46.42412567" lon="6.148026939999999"><ele>1021</ele><time>-0-0T0:0:0Z</time></trkpt>
<trkpt lat="46.42416763" lon="6.148132799999999"><ele>1021</ele><time>-0-0T0:0:0Z</time></trkpt>
<trkpt lat="46.42435455" lon="6.14828777"><ele>1027</ele><time>-0-0T0:0:0Z</time></trkpt>
<trkpt lat="46.42460251" lon="6.14844084"><ele>1022</ele><time>-0-0T0:0:0Z</time></trkpt>
<trkpt lat="46.42474747" lon="6.14855909"><ele>1027</ele><time>-0-0T0:0:0Z</time></trkpt>
<trkpt lat="46.42490005" lon="6.148742200000001"><ele>1035</ele><time>-0-0T0:0:0Z</time></trkpt>
<trkpt lat="46.42493057" lon="6.14880991"><ele>1035</ele><time>-0-0T0:0:0Z</time></trkpt>
<trkpt lat="46.42509079" lon="6.149055960000001"><ele>1035</ele><time>-0-0T0:0:0Z</time></trkpt>
<trkpt lat="46.42530060000001" lon="6.1491828"><ele>1040</ele><time>-0-0T0:0:0Z</time></trkpt>
<trkpt lat="46.42536926" lon="6.14919376"><ele>1037</ele><time>-0-0T0:0:0Z</time></trkpt>
<trkpt lat="46.42560577" lon="6.14925814"><ele>1038</ele><time>-0-0T0:0:0Z</time></trkpt>
<trkpt lat="46.42573166" lon="6.14931583"><ele>1042</ele><time>-0-0T0:0:0Z</time></trkpt>
<trkpt lat="46.42588425" lon="6.149365900000001"><ele>1043</ele><time>-0-0T0:0:0Z</time></trkpt>
<trkpt lat="46.42591857999999" lon="6.14938307"><ele>1043</ele><time>-0-0T0:0:0Z</time></trkpt>
<trkpt lat="46.4261322" lon="6.149546150000001"><ele>1050</ele><time>-0-0T0:0:0Z</time></trkpt>
<trkpt lat="46.42623901" lon="6.14960718"><ele>1058</ele><time>-0-0T0:0:0Z</time></trkpt>
<trkpt lat="46.42625046" lon="6.14953804"><ele>1060</ele><time>-0-0T0:0:0Z</time></trkpt>
<trkpt lat="46.42601013" lon="6.14930487"><ele>1046</ele><time>-0-0T0:0:0Z</time></trkpt>
<trkpt lat="46.42572784" lon="6.14907885"><ele>1051</ele><time>-0-0T0:0:0Z</time></trkpt>
<trkpt lat="46.42555237000001" lon="6.14889288"><ele>1053</ele><time>-0-0T0:0:0Z</time></trkpt>
<trkpt lat="46.42538071" lon="6.14861488"><ele>1056</ele><time>-0-0T0:0:0Z</time></trkpt>
<trkpt lat="46.42529678" lon="6.1482482"><ele>1063</ele><time>-0-0T0:0:0Z</time></trkpt>
<trkpt lat="46.42518616" lon="6.14790201"><ele>1061</ele><time>-0-0T0:0:0Z</time></trkpt>
<trkpt lat="46.4249649" lon="6.14749813"><ele>1062</ele><time>-0-0T0:0:0Z</time></trkpt>
<trkpt lat="46.4248848" lon="6.147169109999999"><ele>1066</ele><time>-0-0T0:0:0Z</time></trkpt>
<trkpt lat="46.42487335" lon="6.147012230000001"><ele>1070</ele><time>-0-0T0:0:0Z</time></trkpt>
<trkpt lat="46.42486191" lon="6.14688015"><ele>1072</ele><time>-0-0T0:0:0Z</time></trkpt>
<trkpt lat="46.42491150000001" lon="6.1464262"><ele>1075</ele><time>-0-0T0:0:0Z</time></trkpt>
<trkpt lat="46.42519379" lon="6.14621496"><ele>1084</ele><time>-0-0T0:0:0Z</time></trkpt>
<trkpt lat="46.42538452" lon="6.145943160000001"><ele>1086</ele><time>-0-0T0:0:0Z</time></trkpt>
<trkpt lat="46.42552185" lon="6.14564419"><ele>1089</ele><time>-0-0T0:0:0Z</time></trkpt>
<trkpt lat="46.42556763" lon="6.14553499"><ele>1089</ele><time>-0-0T0:0:0Z</time></trkpt>
<trkpt lat="46.42559052" lon="6.14535999"><ele>1091</ele><time>-0-0T0:0:0Z</time></trkpt>
<trkpt lat="46.42552947999999" lon="6.144971849999999"><ele>1095</ele><time>-0-0T0:0:0Z</time></trkpt>
<trkpt lat="46.42542267" lon="6.14458609"><ele>1098</ele><time>-0-0T0:0:0Z</time></trkpt>
<trkpt lat="46.42535782" lon="6.14407301"><ele>1103</ele><time>-0-0T0:0:0Z</time></trkpt>
<trkpt lat="46.42544173999999" lon="6.14360619"><ele>1111</ele><time>-0-0T0:0:0Z</time></trkpt>
<trkpt lat="46.42556381" lon="6.143082139999999"><ele>1116</ele><time>-0-0T0:0:0Z</time></trkpt>
<trkpt lat="46.42566299000001" lon="6.14261818"><ele>1122</ele><time>-0-0T0:0:0Z</time></trkpt>
<trkpt lat="46.4257164" lon="6.14230108"><ele>1128</ele><time>-0-0T0:0:0Z</time></trkpt>
<trkpt lat="46.42579651" lon="6.14201212"><ele>1130</ele><time>-0-0T0:0:0Z</time></trkpt>
<trkpt lat="46.42592621" lon="6.14163208"><ele>1134</ele><time>-0-0T0:0:0Z</time></trkpt>
<trkpt lat="46.42601395" lon="6.14129591"><ele>1135</ele><time>-0-0T0:0:0Z</time></trkpt>
<trkpt lat="46.42610168" lon="6.140970229999999"><ele>1139</ele><time>-0-0T0:0:0Z</time></trkpt>
<trkpt lat="46.42610168" lon="6.14071989"><ele>1143</ele><time>-0-0T0:0:0Z</time></trkpt>
<trkpt lat="46.42617416" lon="6.140590190000001"><ele>1143</ele><time>-0-0T0:0:0Z</time></trkpt>
<trkpt lat="46.42619324" lon="6.14059877"><ele>1143</ele><time>-0-0T0:0:0Z</time></trkpt>
<trkpt lat="46.4262619" lon="6.140903950000001"><ele>1144</ele><time>-0-0T0:0:0Z</time></trkpt>
<trkpt lat="46.42643738000001" lon="6.141210079999999"><ele>1149</ele><time>-0-0T0:0:0Z</time></trkpt>
<trkpt lat="46.42645645" lon="6.141644950000001"><ele>1149</ele><time>-0-0T0:0:0Z</time></trkpt>
<trkpt lat="46.42650604" lon="6.142312050000001"><ele>1153</ele><time>-0-0T0:0:0Z</time></trkpt>
<trkpt lat="46.42647171" lon="6.14303684"><ele>1152</ele><time>-0-0T0:0:0Z</time></trkpt>
<trkpt lat="46.42648315000001" lon="6.14365578"><ele>1158</ele><time>-0-0T0:0:0Z</time></trkpt>
<trkpt lat="46.42670059" lon="6.14415503"><ele>1160</ele><time>-0-0T0:0:0Z</time></trkpt>
<trkpt lat="46.42718887000001" lon="6.14498091"><ele>1157</ele><time>-0-0T0:0:0Z</time></trkpt>
<trkpt lat="46.42753983" lon="6.14532804"><ele>1159</ele><time>-0-0T0:0:0Z</time></trkpt>
<trkpt lat="46.42788315" lon="6.1454258"><ele>1161</ele><time>-0-0T0:0:0Z</time></trkpt>
<trkpt lat="46.42825699" lon="6.145593170000001"><ele>1172</ele><time>-0-0T0:0:0Z</time></trkpt>
<trkpt lat="46.42855835000001" lon="6.145667080000001"><ele>1182</ele><time>-0-0T0:0:0Z</time></trkpt>
<trkpt lat="46.42860031" lon="6.145672800000001"><ele>1182</ele><time>-0-0T0:0:0Z</time></trkpt>
<trkpt lat="46.42868423" lon="6.145729060000001"><ele>1184</ele><time>-0-0T0:0:0Z</time></trkpt>
<trkpt lat="46.42900467" lon="6.14584017"><ele>1183</ele><time>-0-0T0:0:0Z</time></trkpt>
<trkpt lat="46.4293251" lon="6.1457119"><ele>1175</ele><time>-0-0T0:0:0Z</time></trkpt>
<trkpt lat="46.42965317000001" lon="6.14541388"><ele>1172</ele><time>-0-0T0:0:0Z</time></trkpt>
<trkpt lat="46.43006134" lon="6.14513302"><ele>1173</ele><time>-0-0T0:0:0Z</time></trkpt>
<trkpt lat="46.4304657" lon="6.14503193"><ele>1180</ele><time>-0-0T0:0:0Z</time></trkpt>
<trkpt lat="46.43099213" lon="6.144979"><ele>1177</ele><time>-0-0T0:0:0Z</time></trkpt>
<trkpt lat="46.43118668" lon="6.14492989"><ele>1177</ele><time>-0-0T0:0:0Z</time></trkpt>
<trkpt lat="46.43118668" lon="6.14477921"><ele>1178</ele><time>-0-0T0:0:0Z</time></trkpt>
<trkpt lat="46.43082428" lon="6.14475393"><ele>1182</ele><time>-0-0T0:0:0Z</time></trkpt>
<trkpt lat="46.43043518" lon="6.14462709"><ele>1186</ele><time>-0-0T0:0:0Z</time></trkpt>
<trkpt lat="46.42995071000001" lon="6.14436722"><ele>1189</ele><time>-0-0T0:0:0Z</time></trkpt>
<trkpt lat="46.42961121" lon="6.14423704"><ele>1190</ele><time>-0-0T0:0:0Z</time></trkpt>
<trkpt lat="46.4291153" lon="6.14414692"><ele>1193</ele><time>-0-0T0:0:0Z</time></trkpt>
<trkpt lat="46.42877197" lon="6.143888"><ele>1199</ele><time>-0-0T0:0:0Z</time></trkpt>
<trkpt lat="46.42856598" lon="6.143617150000001"><ele>1203</ele><time>-0-0T0:0:0Z</time></trkpt>
<trkpt lat="46.42831421" lon="6.14321184"><ele>1208</ele><time>-0-0T0:0:0Z</time></trkpt>
<trkpt lat="46.42824553999999" lon="6.14278412"><ele>1210</ele><time>-0-0T0:0:0Z</time></trkpt>
<trkpt lat="46.42822647" lon="6.14240408"><ele>1212</ele><time>-0-0T0:0:0Z</time></trkpt>
<trkpt lat="46.42827988" lon="6.142024040000001"><ele>1216</ele><time>-0-0T0:0:0Z</time></trkpt>
<trkpt lat="46.42835236" lon="6.14173508"><ele>1219</ele><time>-0-0T0:0:0Z</time></trkpt>
<trkpt lat="46.4283905" lon="6.141622070000001"><ele>1223</ele><time>-0-0T0:0:0Z</time></trkpt>
<trkpt lat="46.42857361" lon="6.14129019"><ele>1234</ele><time>-0-0T0:0:0Z</time></trkpt>
<trkpt lat="46.42868423" lon="6.14087391"><ele>1230</ele><time>-0-0T0:0:0Z</time></trkpt>
<trkpt lat="46.42872238" lon="6.14051723"><ele>1228</ele><time>-0-0T0:0:0Z</time></trkpt>
<trkpt lat="46.4287262" lon="6.14035797"><ele>1227</ele><time>-0-0T0:0:0Z</time></trkpt>
<trkpt lat="46.42883681999999" lon="6.139875889999999"><ele>1228</ele><time>-0-0T0:0:0Z</time></trkpt>
<trkpt lat="46.42889786" lon="6.1394949"><ele>1236</ele><time>-0-0T0:0:0Z</time></trkpt>
<trkpt lat="46.428936" lon="6.139009000000001"><ele>1242</ele><time>-0-0T0:0:0Z</time></trkpt>
<trkpt lat="46.42895889" lon="6.138667109999999"><ele>1244</ele><time>-0-0T0:0:0Z</time></trkpt>
<trkpt lat="46.42900467" lon="6.13833714"><ele>1249</ele><time>-0-0T0:0:0Z</time></trkpt>
<trkpt lat="46.42885971000001" lon="6.13796091"><ele>1257</ele><time>-0-0T0:0:0Z</time></trkpt>
<trkpt lat="46.42870331" lon="6.13756704"><ele>1257</ele><time>-0-0T0:0:0Z</time></trkpt>
<trkpt lat="46.42855835000001" lon="6.13716316"><ele>1259</ele><time>-0-0T0:0:0Z</time></trkpt>
<trkpt lat="46.42844771999999" lon="6.13684702"><ele>1260</ele><time>-0-0T0:0:0Z</time></trkpt>
<trkpt lat="46.42832947000001" lon="6.13650417"><ele>1263</ele><time>-0-0T0:0:0Z</time></trkpt>
<trkpt lat="46.4282608" lon="6.13638401"><ele>1262</ele><time>-0-0T0:0:0Z</time></trkpt>
<trkpt lat="46.42807007" lon="6.13603115"><ele>1258</ele><time>-0-0T0:0:0Z</time></trkpt>
<trkpt lat="46.42782974000001" lon="6.135774140000001"><ele>1257</ele><time>-0-0T0:0:0Z</time></trkpt>
<trkpt lat="46.42757797000001" lon="6.13532019"><ele>1267</ele><time>-0-0T0:0:0Z</time></trkpt>
<trkpt lat="46.42735671999999" lon="6.134899139999999"><ele>1271</ele><time>-0-0T0:0:0Z</time></trkpt>
<trkpt lat="46.42717743" lon="6.134533879999999"><ele>1282</ele><time>-0-0T0:0:0Z</time></trkpt>
<trkpt lat="46.42694855" lon="6.13435411"><ele>1284</ele><time>-0-0T0:0:0Z</time></trkpt>
<trkpt lat="46.42668533" lon="6.13423586"><ele>1283</ele><time>-0-0T0:0:0Z</time></trkpt>
<trkpt lat="46.42638016" lon="6.13400507"><ele>1280</ele><time>-0-0T0:0:0Z</time></trkpt>
<trkpt lat="46.42596054000001" lon="6.133750919999999"><ele>1284</ele><time>-0-0T0:0:0Z</time></trkpt>
<trkpt lat="46.42549515" lon="6.133718969999999"><ele>1281</ele><time>-0-0T0:0:0Z</time></trkpt>
<trkpt lat="46.42498397999999" lon="6.13341904"><ele>1282</ele><time>-0-0T0:0:0Z</time></trkpt>
<trkpt lat="46.42495346" lon="6.13333988"><ele>1282</ele><time>-0-0T0:0:0Z</time></trkpt>
<trkpt lat="46.42499924" lon="6.13322496"><ele>1284</ele><time>-0-0T0:0:0Z</time></trkpt>
<trkpt lat="46.42527008" lon="6.133049010000001"><ele>1289</ele><time>-0-0T0:0:0Z</time></trkpt>
<trkpt lat="46.42527771" lon="6.13300705"><ele>1290</ele><time>-0-0T0:0:0Z</time></trkpt>
<trkpt lat="46.42530060000001" lon="6.13293886"><ele>1293</ele><time>-0-0T0:0:0Z</time></trkpt>
<trkpt lat="46.42523193" lon="6.132617"><ele>1302</ele><time>-0-0T0:0:0Z</time></trkpt>
<trkpt lat="46.42520142" lon="6.13249493"><ele>1303</ele><time>-0-0T0:0:0Z</time></trkpt>
<trkpt lat="46.42516327000001" lon="6.13218212"><ele>1308</ele><time>-0-0T0:0:0Z</time></trkpt>
<trkpt lat="46.42516708" lon="6.13206291"><ele>1309</ele><time>-0-0T0:0:0Z</time></trkpt>
<trkpt lat="46.42518616" lon="6.13178778"><ele>1313</ele><time>-0-0T0:0:0Z</time></trkpt>
<trkpt lat="46.4251976" lon="6.1315341"><ele>1316</ele><time>-0-0T0:0:0Z</time></trkpt>
<trkpt lat="46.4251976" lon="6.13150501"><ele>1317</ele><time>-0-0T0:0:0Z</time></trkpt>
<trkpt lat="46.42515945000001" lon="6.131175989999999"><ele>1320</ele><time>-0-0T0:0:0Z</time></trkpt>
<trkpt lat="46.42516708" lon="6.13084221"><ele>1325</ele><time>-0-0T0:0:0Z</time></trkpt>
<trkpt lat="46.42512131" lon="6.13062191"><ele>1326</ele><time>-0-0T0:0:0Z</time></trkpt>
<trkpt lat="46.42507553" lon="6.13029909"><ele>1327</ele><time>-0-0T0:0:0Z</time></trkpt>
<trkpt lat="46.42507172000001" lon="6.130019190000001"><ele>1332</ele><time>-0-0T0:0:0Z</time></trkpt>
<trkpt lat="46.42515564" lon="6.12967491"><ele>1336</ele><time>-0-0T0:0:0Z</time></trkpt>
<trkpt lat="46.42515945000001" lon="6.12939882"><ele>1340</ele><time>-0-0T0:0:0Z</time></trkpt>
<trkpt lat="46.42516708" lon="6.12936783"><ele>1340</ele><time>-0-0T0:0:0Z</time></trkpt>
<trkpt lat="46.42508698" lon="6.12907219"><ele>1345</ele><time>-0-0T0:0:0Z</time></trkpt>
<trkpt lat="46.42504501" lon="6.12880898"><ele>1343</ele><time>-0-0T0:0:0Z</time></trkpt>
<trkpt lat="46.42500687" lon="6.12864017"><ele>1343</ele><time>-0-0T0:0:0Z</time></trkpt>
<trkpt lat="46.42501068" lon="6.12856388"><ele>1343</ele><time>-0-0T0:0:0Z</time></trkpt>
<trkpt lat="46.42501831" lon="6.12848091"><ele>1342</ele><time>-0-0T0:0:0Z</time></trkpt>
<trkpt lat="46.42498779" lon="6.128088"><ele>1348</ele><time>-0-0T0:0:0Z</time></trkpt>
<trkpt lat="46.42485046" lon="6.12775707"><ele>1352</ele><time>-0-0T0:0:0Z</time></trkpt>
<trkpt lat="46.42473221" lon="6.127576829999999"><ele>1358</ele><time>-0-0T0:0:0Z</time></trkpt>
<trkpt lat="46.42469024999999" lon="6.12750578"><ele>1360</ele><time>-0-0T0:0:0Z</time></trkpt>
<trkpt lat="46.42466354000001" lon="6.127461910000001"><ele>1362</ele><time>-0-0T0:0:0Z</time></trkpt>
<trkpt lat="46.42454909999999" lon="6.12733221"><ele>1364</ele><time>-0-0T0:0:0Z</time></trkpt>
<trkpt lat="46.42443085" lon="6.127126220000001"><ele>1368</ele><time>-0-0T0:0:0Z</time></trkpt>
<trkpt lat="46.42437744" lon="6.12704706"><ele>1368</ele><time>-0-0T0:0:0Z</time></trkpt>
<trkpt lat="46.42427063000001" lon="6.12681484"><ele>1373</ele><time>-0-0T0:0:0Z</time></trkpt>
<trkpt lat="46.42416382" lon="6.12662077"><ele>1378</ele><time>-0-0T0:0:0Z</time></trkpt>
<trkpt lat="46.42414856" lon="6.1265111"><ele>1380</ele><time>-0-0T0:0:0Z</time></trkpt>
<trkpt lat="46.42406464" lon="6.126274110000001"><ele>1382</ele><time>-0-0T0:0:0Z</time></trkpt>
<trkpt lat="46.42399979" lon="6.126049039999999"><ele>1384</ele><time>-0-0T0:0:0Z</time></trkpt>
<trkpt lat="46.42399979" lon="6.126018049999999"><ele>1384</ele><time>-0-0T0:0:0Z</time></trkpt>
<trkpt lat="46.42401123" lon="6.12586498"><ele>1388</ele><time>-0-0T0:0:0Z</time></trkpt>
<trkpt lat="46.42418289" lon="6.1257329"><ele>1394</ele><time>-0-0T0:0:0Z</time></trkpt>
<trkpt lat="46.42423248" lon="6.12572193"><ele>1395</ele><time>-0-0T0:0:0Z</time></trkpt>
<trkpt lat="46.42434311" lon="6.125790119999999"><ele>1396</ele><time>-0-0T0:0:0Z</time></trkpt>
<trkpt lat="46.42443085" lon="6.12589121"><ele>1397</ele><time>-0-0T0:0:0Z</time></trkpt>
<trkpt lat="46.42454147" lon="6.12600708"><ele>1400</ele><time>-0-0T0:0:0Z</time></trkpt>
<trkpt lat="46.42456055" lon="6.12603283"><ele>1400</ele><time>-0-0T0:0:0Z</time></trkpt>
<trkpt lat="46.42471313" lon="6.126247879999999"><ele>1403</ele><time>-0-0T0:0:0Z</time></trkpt>
<trkpt lat="46.42483139" lon="6.12630606"><ele>1404</ele><time>-0-0T0:0:0Z</time></trkpt>
<trkpt lat="46.42505264" lon="6.12637186"><ele>1407</ele><time>-0-0T0:0:0Z</time></trkpt>
<trkpt lat="46.42512131" lon="6.12637997"><ele>1408</ele><time>-0-0T0:0:0Z</time></trkpt>
<trkpt lat="46.42520142" lon="6.126377109999999"><ele>1408</ele><time>-0-0T0:0:0Z</time></trkpt>
<trkpt lat="46.42538834" lon="6.12635183"><ele>1411</ele><time>-0-0T0:0:0Z</time></trkpt>
<trkpt lat="46.4255867" lon="6.12633181"><ele>1411</ele><time>-0-0T0:0:0Z</time></trkpt>
<trkpt lat="46.42579651" lon="6.12645197"><ele>1412</ele><time>-0-0T0:0:0Z</time></trkpt>
<trkpt lat="46.42600632000001" lon="6.12660885"><ele>1412</ele><time>-0-0T0:0:0Z</time></trkpt>
<trkpt lat="46.42625427" lon="6.1267581"><ele>1411</ele><time>-0-0T0:0:0Z</time></trkpt>
<trkpt lat="46.42637633999999" lon="6.12676477"><ele>1417</ele><time>-0-0T0:0:0Z</time></trkpt>
<trkpt lat="46.42643738000001" lon="6.126897810000001"><ele>1423</ele><time>-0-0T0:0:0Z</time></trkpt>
<trkpt lat="46.42667006999999" lon="6.12712097"><ele>1430</ele><time>-0-0T0:0:0Z</time></trkpt>
<trkpt lat="46.42669678" lon="6.12713385"><ele>1430</ele><time>-0-0T0:0:0Z</time></trkpt>
<trkpt lat="46.42676543999999" lon="6.127211089999999"><ele>1431</ele><time>-0-0T0:0:0Z</time></trkpt>
<trkpt lat="46.42683792" lon="6.12727499"><ele>1433</ele><time>-0-0T0:0:0Z</time></trkpt>
<trkpt lat="46.42686844" lon="6.1272769"><ele>1434</ele><time>-0-0T0:0:0Z</time></trkpt>
<trkpt lat="46.42692947" lon="6.12722921"><ele>1435</ele><time>-0-0T0:0:0Z</time></trkpt>
<trkpt lat="46.42709732" lon="6.127109050000001"><ele>1440</ele><time>-0-0T0:0:0Z</time></trkpt>
<trkpt lat="46.42723465000001" lon="6.12707376"><ele>1441</ele><time>-0-0T0:0:0Z</time></trkpt>
<trkpt lat="46.42744827" lon="6.127171040000001"><ele>1443</ele><time>-0-0T0:0:0Z</time></trkpt>
<trkpt lat="46.42755127" lon="6.127277849999999"><ele>1445</ele><time>-0-0T0:0:0Z</time></trkpt>
<trkpt lat="46.42760848999999" lon="6.12734318"><ele>1446</ele><time>-0-0T0:0:0Z</time></trkpt>
<trkpt lat="46.42772293" lon="6.127350810000001"><ele>1450</ele><time>-0-0T0:0:0Z</time></trkpt>
<trkpt lat="46.42779541" lon="6.12744999"><ele>1450</ele><time>-0-0T0:0:0Z</time></trkpt>
<trkpt lat="46.42789078" lon="6.127544879999999"><ele>1452</ele><time>-0-0T0:0:0Z</time></trkpt>
<trkpt lat="46.42798615" lon="6.127666"><ele>1451</ele><time>-0-0T0:0:0Z</time></trkpt>
<trkpt lat="46.4281044" lon="6.1277709"><ele>1453</ele><time>-0-0T0:0:0Z</time></trkpt>
<trkpt lat="46.42826462000001" lon="6.127871039999999"><ele>1456</ele><time>-0-0T0:0:0Z</time></trkpt>
<trkpt lat="46.42827988" lon="6.12789106"><ele>1457</ele><time>-0-0T0:0:0Z</time></trkpt>
<trkpt lat="46.42830276" lon="6.127915859999999"><ele>1457</ele><time>-0-0T0:0:0Z</time></trkpt>
<trkpt lat="46.42835616999999" lon="6.12799406"><ele>1457</ele><time>-0-0T0:0:0Z</time></trkpt>
<trkpt lat="46.42847061000001" lon="6.12809896"><ele>1459</ele><time>-0-0T0:0:0Z</time></trkpt>
<trkpt lat="46.42866135" lon="6.12824392"><ele>1460</ele><time>-0-0T0:0:0Z</time></trkpt>
<trkpt lat="46.42883301" lon="6.12848997"><ele>1460</ele><time>-0-0T0:0:0Z</time></trkpt>
<trkpt lat="46.42903137" lon="6.12885094"><ele>1464</ele><time>-0-0T0:0:0Z</time></trkpt>
<trkpt lat="46.42922974" lon="6.1290822"><ele>1469</ele><time>-0-0T0:0:0Z</time></trkpt>
<trkpt lat="46.42932892" lon="6.129220960000001"><ele>1470</ele><time>-0-0T0:0:0Z</time></trkpt>
<trkpt lat="46.42946625" lon="6.12932205"><ele>1471</ele><time>-0-0T0:0:0Z</time></trkpt>
<trkpt lat="46.42951965" lon="6.12933588"><ele>1471</ele><time>-0-0T0:0:0Z</time></trkpt>
<trkpt lat="46.42957687" lon="6.129323959999999"><ele>1473</ele><time>-0-0T0:0:0Z</time></trkpt>
<trkpt lat="46.42958831999999" lon="6.129332070000001"><ele>1474</ele><time>-0-0T0:0:0Z</time></trkpt>
<trkpt lat="46.42959213" lon="6.129349230000001"><ele>1473</ele><time>-0-0T0:0:0Z</time></trkpt>
<trkpt lat="46.42978668" lon="6.12948608"><ele>1472</ele><time>-0-0T0:0:0Z</time></trkpt>
<trkpt lat="46.42985535" lon="6.12955904"><ele>1469</ele><time>-0-0T0:0:0Z</time></trkpt>
<trkpt lat="46.43003082" lon="6.12948418"><ele>1468</ele><time>-0-0T0:0:0Z</time></trkpt>
<trkpt lat="46.43019485" lon="6.12914181"><ele>1471</ele><time>-0-0T0:0:0Z</time></trkpt>
<trkpt lat="46.43035507" lon="6.128849980000001"><ele>1474</ele><time>-0-0T0:0:0Z</time></trkpt>
<trkpt lat="46.43047713999999" lon="6.128658770000001"><ele>1477</ele><time>-0-0T0:0:0Z</time></trkpt>
<trkpt lat="46.43055725" lon="6.12864113"><ele>1479</ele><time>-0-0T0:0:0Z</time></trkpt>
<trkpt lat="46.43060303" lon="6.12865305"><ele>1479</ele><time>-0-0T0:0:0Z</time></trkpt>
<trkpt lat="46.43087769" lon="6.1288619"><ele>1480</ele><time>-0-0T0:0:0Z</time></trkpt>
<trkpt lat="46.43117142" lon="6.12879705"><ele>1481</ele><time>-0-0T0:0:0Z</time></trkpt>
<trkpt lat="46.43127441000001" lon="6.12868881"><ele>1483</ele><time>-0-0T0:0:0Z</time></trkpt>
<trkpt lat="46.4312439" lon="6.12828684"><ele>1487</ele><time>-0-0T0:0:0Z</time></trkpt>
<trkpt lat="46.43115616" lon="6.12817383"><ele>1487</ele><time>-0-0T0:0:0Z</time></trkpt>
<trkpt lat="46.43104553000001" lon="6.128120900000001"><ele>1488</ele><time>-0-0T0:0:0Z</time></trkpt>
<trkpt lat="46.43093109000001" lon="6.12826777"><ele>1487</ele><time>-0-0T0:0:0Z</time></trkpt>
<trkpt lat="46.43076706" lon="6.12823105"><ele>1487</ele><time>-0-0T0:0:0Z</time></trkpt>
<trkpt lat="46.43074417" lon="6.12815714"><ele>1488</ele><time>-0-0T0:0:0Z</time></trkpt>
<trkpt lat="46.43066025" lon="6.128155229999999"><ele>1487</ele><time>-0-0T0:0:0Z</time></trkpt>
<trkpt lat="46.43060684" lon="6.128126140000001"><ele>1487</ele><time>-0-0T0:0:0Z</time></trkpt>
</trkseg></trk></gpx>